[[{"header":{"parameterUnit":"m.s-1","parameterCategory":1,"la1":30.2991,"la2":30.254,"lo1":-89.0895,"lo2":-89.0444,"dy":0.0017,"dx":0.0017,"nx":28,"ny":28,"refTime":"2024-04-16T21:00:00:Z","depth":0,"parameterNumber":2,"parameterNumberName":"U-component_of_WINDS"},"data":[0,0,0,0,0,0,0,0,0,0,0,0,0,0,0,0,0,0,0,0,0,0,0,0,0,0,0,0,0,0,0,0,0,0,0,0,0,0,0,0,0,0,0,0,0,0,0,0,0,0,0,0,0,0,0,0,0,0,-2.7728,-2.7728,0,-2.7705,-2.7705,-2.7705,-2.7655,-2.7654,-2.7653,-2.7652,-2.7626,-2.7627,-2.7627,0,0,0,0,0,0,0,0,0,0,0,0,0,-2.7729,-2.7729,-2.7728,-2.7728,-2.7728,-2.7705,-2.7705,-2.7705,-2.7655,-2.7654,-2.7652,-2.7651,-2.7626,-2.7627,-2.7627,0,0,0,0,0,0,0,0,0,0,0,0,0,-2.772,-2.773,-2.7728,-2.77,-2.7698,-2.7705,-2.7705,-2.7705,-2.7655,-2.7654,-2.7652,-2.7651,-2.7626,-2.7626,-2.7627,-2.766,0,0,-2.7628,-2.7628,0,0,0,0,0,0,0,0,-2.772,-2.772,-2.7705,-2.7702,-2.7699,-2.7681,-2.7696,-2.769,-2.7656,-2.7671,-2.7652,-2.765,-2.7646,-2.7644,-2.7643,-2.7659,-2.7657,-2.7628,-2.7628,-2.7629,-2.7629,0,0,0,0,0,0,0,-2.7721,-2.772,-2.7719,-2.7705,-2.7701,-2.7689,-2.7686,-2.7695,-2.7667,-2.767,-2.7666,-2.7664,-2.7644,-2.7643,-2.7642,-2.7657,-2.7628,-2.7628,-2.7629,-2.7629,-2.7699,-2.7701,0,0,0,0,0,0,-2.7726,-2.7721,-2.772,-2.7718,-2.7706,-2.769,-2.7687,-2.7689,-2.7667,-2.7662,-2.7665,-2.7662,-2.7643,-2.7642,-2.7641,-2.7678,-2.7629,-2.7629,-2.7629,-2.7698,-2.77,-2.7701,0,0,0,0,0,0,-2.7726,-2.7726,-2.7721,-2.7719,-2.7717,-2.7692,-2.7694,-2.7689,-2.7688,-2.7664,-2.7659,-2.767,-2.7642,-2.7641,-2.7656,-2.7677,-2.7629,-2.7629,-2.7696,-2.7698,-2.7701,-2.7753,0,0,0,0,0,0,-2.7726,-2.7727,-2.7739,-2.772,-2.7718,-2.7736,-2.7696,-2.769,-2.7689,-2.7684,-2.7666,-2.7662,-2.7641,-2.7656,-2.7656,-2.7676,-2.763,-2.7694,-2.7697,-2.77,-2.7749,-2.7757,-2.7763,0,0,0,0,0,-2.7727,-2.7754,-2.7739,-2.7739,-2.7732,-2.7737,-2.7736,-2.7711,-2.7691,-2.7703,-2.7688,-2.7662,-2.7675,-2.7658,-2.7658,-2.7678,-2.7692,-2.7696,-2.77,-2.7746,-2.7755,-2.7763,0,0,0,0,0,0,-2.7774,-2.775,-2.7734,-2.7756,-2.7749,-2.7729,-2.7742,-2.7722,-2.772,-2.7715,-2.7685,-2.7682,-2.7701,-2.7691,-2.7672,-2.771,-2.768,-2.7684,-2.7715,-2.7723,-2.773,-2.7731,-2.763,0,0,0,0,0,-2.7788,-2.7794,-2.7773,-2.7794,-2.7791,-2.7768,-2.7769,-2.7752,-2.7743,-2.7739,-2.7725,-2.7717,-2.7719,-2.7721,-2.7722,-2.7749,-2.7744,-2.7763,-2.777,-2.7776,-2.7779,-2.7793,-2.7801,-2.7713,-2.7713,-2.7713,0,0,-2.7814,-2.7802,-2.7808,-2.7803,-2.7796,-2.7803,-2.7766,-2.7774,-2.7779,-2.774,-2.7753,-2.7744,-2.7733,-2.7754,-2.7763,-2.7747,-2.7803,-2.7781,-2.7786,-2.7785,-2.7798,-2.7806,-2.7813,-2.7716,-2.7716,-2.7715,0,0,-2.7867,-2.7859,-2.7875,-2.7869,-2.7859,-2.7844,-2.7848,-2.7832,-2.7823,-2.7837,-2.7808,-2.7814,-2.7818,-2.7812,-2.781,-2.7864,-2.784,-2.7865,-2.7901,-2.7915,-2.7922,-2.7928,-2.7946,-2.7953,-2.7869,-2.7869,-2.7869,0,-2.7901,-2.7911,-2.7887,-2.7898,-2.7897,-2.7864,-2.7881,-2.7876,-2.7866,-2.7866,-2.785,-2.7856,-2.7846,-2.7866,-2.7879,-2.7879,-2.7882,-2.7865,-2.7923,-2.7929,-2.7934,-2.7951,-2.7958,-2.7872,-2.7871,-2.7871,-2.7871,0,-2.7953,-2.7961,-2.7976,-2.7968,-2.797,-2.7984,-2.7962,-2.7966,-2.795,-2.7936,-2.7951,-2.7939,-2.7937,-2.7941,-2.7924,-2.7959,-2.795,-2.7929,-2.7897,-2.7946,-2.7961,-2.7968,-2.7876,-2.7875,-2.7874,-2.7873,0,0,-2.8031,-2.8013,-2.8019,-2.8015,-2.8003,-2.8008,-2.8022,-2.8021,-2.8025,-2.8021,-2.8031,-2.8038,-2.8018,-2.8016,-2.7998,-2.8011,-2.8054,-2.7988,-2.7988,-2.8,-2.8092,-2.8106,-2.8114,-2.804,-2.8041,-2.8042,-2.8092,0,-2.8079,-2.8101,-2.8081,-2.8106,-2.8113,-2.8084,-2.8096,-2.809,-2.8079,-2.8083,-2.8071,-2.8075,-2.805,-2.8049,-2.806,-2.8047,-2.8072,-2.8043,-2.8048,-2.8049,-2.805,-2.8122,-2.8137,-2.8185,-2.8098,-2.8099,-2.81,0,-2.8137,-2.8137,-2.8163,-2.8151,-2.8153,-2.8164,-2.8162,-2.8167,-2.8161,-2.8152,-2.8151,-2.8131,-2.8143,-2.8115,-2.8132,-2.8113,-2.8114,-2.8109,-2.811,-2.8108,-2.8076,-2.8121,-2.8199,-2.8206,-2.811,-2.8109,-2.8108,0,-2.8191,-2.8197,-2.8213,-2.8212,-2.8198,-2.8207,-2.8201,-2.8193,-2.8195,-2.8194,-2.8195,-2.8195,-2.8195,-2.8196,-2.8177,-2.8158,-2.8197,-2.8167,-2.8189,-2.819,-2.8196,-2.8195,-2.8275,-2.8201,-2.82,-2.82,-2.82,0,-2.8245,-2.8262,-2.8237,-2.8247,-2.8266,-2.8244,-2.8263,-2.8255,-2.8249,-2.8257,-2.8232,-2.824,-2.8215,-2.8221,-2.8206,-2.8223,-2.8223,-2.8216,-2.8211,-2.8217,-2.8218,-2.8216,-2.8211,-2.8202,-2.8202,-2.8201,-2.8201,0,-2.8306,-2.829,-2.8307,-2.8294,-2.8291,-2.8305,-2.8294,-2.8303,-2.8292,-2.8302,-2.8303,-2.8285,-2.8291,-2.8273,-2.8276,-2.8266,-2.829,-2.8281,-2.8292,-2.8288,-2.8311,-2.8309,-2.839,-2.84,-2.8322,-2.8322,-2.8323,0,-2.8341,-2.8353,-2.8342,-2.8347,-2.8343,-2.835,-2.8352,-2.8332,-2.8335,-2.833,-2.8339,-2.8343,-2.8345,-2.8356,-2.8343,-2.8345,-2.8335,-2.8364,-2.8335,-2.834,-2.8334,-2.8333,-2.8334,-2.8368,-2.8369,-2.837,-2.8371,0,-2.8404,-2.8396,-2.84,-2.8402,-2.8405,-2.8406,-2.8404,-2.8409,-2.8388,-2.8393,-2.8399,-2.8401,-2.8404,-2.8408,-2.8409,-2.8403,-2.8383,-2.8381,-2.8386,-2.839,-2.8396,-2.8392,-2.8306,-2.8378,-2.8377,-2.8377,-2.8376,-2.8376,-2.8452,-2.8462,-2.8456,-2.8462,-2.8459,-2.8459,-2.8467,-2.8458,-2.8463,-2.8465,-2.8453,-2.8462,-2.8457,-2.8455,-2.8452,-2.8459,-2.8445,-2.8453,-2.8455,-2.8456,-2.846,-2.8397,-2.8459,-2.8459,-2.8458,-2.8458,-2.8458,0,-2.8512,-2.8508,-2.8514,-2.8513,-2.8518,-2.8502,-2.85,-2.8505,-2.8513,-2.851,-2.8514,-2.8521,-2.8526,-2.8515,-2.8518,-2.8526,-2.8517,-2.8527,-2.8525,-2.8524,-2.8472,-2.8467,-2.8534,-2.8534,-2.8534,-2.8534,-2.8534,-2.8534,-2.8544,-2.8561,-2.8553,-2.8569,-2.8564,-2.8573,-2.8574,-2.8574,-2.8571,-2.8581,-2.8586,-2.8579,-2.8573,-2.8576,-2.858,-2.8577,-2.8578,-2.8591,-2.8585,-2.8535,-2.8528,-2.8521,-2.8515,-2.8592,-2.8592,-2.8636,-2.8637,-2.8637]},{"header":{"parameterUnit":"m.s-1","parameterCategory":1,"la1":30.2991,"la2":30.254,"lo1":-89.0895,"lo2":-89.0444,"dy":0.0017,"dx":0.0017,"nx":28,"ny":28,"refTime":"2024-04-16T21:00:00:Z","depth":0,"parameterNumber":3,"parameterNumberName":"V-component_of_WINDS"},"data":[0,0,0,0,0,0,0,0,0,0,0,0,0,0,0,0,0,0,0,0,0,0,0,0,0,0,0,0,0,0,0,0,0,0,0,0,0,0,0,0,0,0,0,0,0,0,0,0,0,0,0,0,0,0,0,0,0,0,2.9337,2.9337,0,2.9317,2.9317,2.9317,2.9336,2.9336,2.9337,2.9338,2.9312,2.931,2.9309,0,0,0,0,0,0,0,0,0,0,0,0,0,2.9387,2.9386,2.9337,2.9337,2.9336,2.9317,2.9317,2.9317,2.9335,2.9336,2.9337,2.9338,2.9312,2.9311,2.9309,0,0,0,0,0,0,0,0,0,0,0,0,0,2.9366,2.9385,2.9337,2.9344,2.9344,2.9318,2.9317,2.9317,2.9335,2.9336,2.9337,2.9339,2.9313,2.9311,2.9309,2.9273,0,0,2.9302,2.9301,0,0,0,0,0,0,0,0,2.9367,2.9364,2.9343,2.9343,2.9343,2.933,2.9325,2.9302,2.9335,2.9338,2.9338,2.9339,2.9317,2.9314,2.9308,2.9272,2.9271,2.9302,2.9301,2.93,2.9299,0,0,0,0,0,0,0,2.9368,2.9365,2.9329,2.9342,2.9343,2.9346,2.9345,2.9321,2.9321,2.9338,2.9339,2.9337,2.9317,2.931,2.9307,2.927,2.9302,2.93,2.9299,2.9298,2.9207,2.9206,0,0,0,0,0,0,2.937,2.9366,2.933,2.9328,2.9358,2.9345,2.9343,2.9333,2.9321,2.9321,2.9336,2.9338,2.9313,2.931,2.9307,2.9266,2.93,2.9298,2.9297,2.9208,2.9207,2.9205,0,0,0,0,0,0,2.9371,2.9366,2.933,2.9348,2.9343,2.9343,2.9332,2.9332,2.9325,2.932,2.932,2.9329,2.9314,2.931,2.9282,2.9265,2.9297,2.9295,2.921,2.9208,2.9206,2.9184,0,0,0,0,0,0,2.9372,2.9367,2.9354,2.9347,2.9342,2.9307,2.9331,2.9331,2.9322,2.9325,2.9313,2.9313,2.9314,2.9285,2.928,2.9263,2.9293,2.9211,2.9209,2.9207,2.9186,2.9181,2.9177,0,0,0,0,0,2.9374,2.9346,2.9353,2.9348,2.9326,2.9306,2.9303,2.9308,2.9321,2.9308,2.9305,2.9313,2.9268,2.9282,2.9277,2.9259,2.9212,2.9209,2.9207,2.9188,2.9182,2.9178,0,0,0,0,0,0,2.9347,2.9345,2.9353,2.9322,2.9315,2.931,2.9293,2.9301,2.9288,2.929,2.9294,2.9292,2.9263,2.9258,2.9274,2.9225,2.9242,2.9238,2.923,2.9224,2.922,2.9222,2.9292,0,0,0,0,0,2.9338,2.9324,2.9322,2.9295,2.9292,2.9293,2.9284,2.9289,2.928,2.9276,2.9271,2.9261,2.9246,2.9234,2.9219,2.9186,2.9184,2.917,2.9166,2.9163,2.9159,2.9144,2.9138,2.9197,2.9197,2.9197,0,0,2.9318,2.9316,2.9306,2.929,2.9285,2.9269,2.929,2.9271,2.926,2.9273,2.9248,2.9244,2.9233,2.9204,2.919,2.9198,2.9143,2.916,2.9157,2.9155,2.914,2.9135,2.913,2.9195,2.9195,2.9196,0,0,2.9275,2.9271,2.925,2.9246,2.9239,2.924,2.9235,2.923,2.9229,2.9204,2.9215,2.92,2.9172,2.9165,2.9157,2.9116,2.9123,2.911,2.9088,2.9073,2.9068,2.9064,2.9051,2.9046,2.9107,2.9107,2.9107,0,2.9251,2.923,2.9237,2.922,2.9213,2.9228,2.9206,2.92,2.9188,2.9182,2.9192,2.916,2.9153,2.9123,2.9114,2.9107,2.9102,2.9111,2.9069,2.9065,2.9061,2.9048,2.9043,2.9105,2.9106,2.9106,2.9106,0,2.9201,2.9186,2.917,2.9161,2.9152,2.9132,2.9137,2.9127,2.9133,2.9133,2.911,2.9103,2.9088,2.9081,2.9085,2.9053,2.9058,2.9068,2.9085,2.9054,2.9042,2.9037,2.9103,2.9104,2.9104,2.9105,0,0,2.9138,2.9137,2.9131,2.9129,2.9123,2.9111,2.9093,2.9081,2.9073,2.9064,2.9049,2.9027,2.9038,2.9029,2.9033,2.9019,2.8989,2.9031,2.9031,2.9025,2.8955,2.8948,2.8942,2.8995,2.8994,2.8993,2.8957,0,2.9096,2.9067,2.9075,2.9045,2.9032,2.9047,2.9031,2.9026,2.9026,2.9015,2.9015,2.9,2.9014,2.9009,2.8997,2.8996,2.8975,2.8998,2.898,2.898,2.8983,2.8936,2.8928,2.8894,2.8952,2.8951,2.895,0,2.9042,2.9036,2.9005,2.9006,2.9001,2.8986,2.8978,2.8966,2.8961,2.8963,2.8956,2.8963,2.8945,2.8963,2.8938,2.8954,2.8947,2.8946,2.8945,2.8943,2.8963,2.8934,2.8882,2.8878,2.8943,2.8943,2.8944,0,2.9002,2.8985,2.8965,2.8962,2.8961,2.8952,2.895,2.8947,2.894,2.8932,2.8928,2.8917,2.8911,2.8902,2.8907,2.8919,2.8882,2.8899,2.8883,2.8883,2.8874,2.8874,2.8821,2.8868,2.8868,2.8868,2.8869,0,2.8954,2.8935,2.8948,2.8935,2.8915,2.8925,2.8904,2.8904,2.8902,2.889,2.8901,2.8889,2.8896,2.8884,2.8887,2.8868,2.8864,2.8865,2.8866,2.8864,2.8864,2.886,2.8863,2.8867,2.8867,2.8868,2.8868,0,2.8905,2.8912,2.8892,2.8895,2.8895,2.888,2.8882,2.8871,2.8874,2.8858,2.8855,2.8859,2.8847,2.8851,2.8836,2.8839,2.8814,2.8818,2.8817,2.8818,2.8801,2.8803,2.8744,2.8737,2.8788,2.8787,2.8787,0,2.8874,2.8861,2.8863,2.8858,2.8857,2.8846,2.8841,2.885,2.8844,2.8839,2.8829,2.8818,2.881,2.879,2.8791,2.878,2.8784,2.8765,2.8783,2.8783,2.8786,2.8787,2.8786,2.8761,2.876,2.876,2.8759,0,2.882,2.8825,2.8818,2.8813,2.8807,2.8802,2.8799,2.8793,2.8802,2.8795,2.8784,2.8778,2.8766,2.8755,2.8747,2.8745,2.8754,2.8754,2.875,2.8748,2.8749,2.875,2.8808,2.8755,2.8755,2.8756,2.8756,2.8756,2.878,2.877,2.8771,2.8763,2.8762,2.876,2.875,2.8754,2.8746,2.8738,2.8744,2.8732,2.8729,2.8719,2.8716,2.8707,2.8714,2.8707,2.8706,2.8704,2.8703,2.875,2.8705,2.8705,2.8705,2.8705,2.8705,0,2.8727,2.873,2.8723,2.872,2.8714,2.8726,2.8723,2.8717,2.8707,2.8705,2.8698,2.8687,2.8678,2.8679,2.8671,2.8663,2.8667,2.8661,2.8661,2.8661,2.8696,2.8701,2.8658,2.8658,2.8658,2.8658,2.8658,2.8658,2.8699,2.8684,2.869,2.8674,2.8676,2.8666,2.8664,2.8662,2.8661,2.8649,2.8643,2.8645,2.8644,2.8637,2.8629,2.863,2.8627,2.8619,2.8621,2.8654,2.8658,2.8663,2.8668,2.8618,2.8618,2.8587,2.8587,2.8587]}]]